Location: La Tine
(46.4708°N, 7.0525°E)
Time: 00:56:09
(UTC+00:00)

Cosmos 1833 Rocket - Pass Details

Date: 21 January 2021
Orbit: 833 x 839 km, 71.0° (Epoch: 03 March)

Event Time Altitude Azimuth Distance (km) Brightness Sun altitude
Rises 19:14:56 0° 333° (NNW) 3,391 6.2 -29.8°
Reaches altitude 10° 19:17:23 10° 334° (NNW) 2,453 5.4 -30.2°
Enters shadow 19:20:59 42° 339° (NNW) 1,188 3.5 -30.8°
